This demonstration page uses our WeatherBlox Daily Observations layout. Learn more.

41.55636, -103.73856

Hourly Observations for July 2, 2016

Temp ( °F °C ) Dew Point ( °F °C ) Humidity (%) Winds ( mph kmh ) Pressure ( in mb ) Visibility ( mi km ) Precip ( " mm )
12:53 am 00:53 Mostly Clear 59 15 56 13.3 90 90 E 5 7 29.93 1013 10 16.0934 0 0
1:05 am 01:05 Mostly Cloudy 60 15.6 57 13.9 90 90 ENE 7 11 29.91 1013 10 16.0934 0 0
1:53 am 01:53 Cloudy 61 16.1 57 13.9 87 87 ESE 8 13 29.89 1012 10 16.0934 0 0
2:53 am 02:53 Cloudy 59 15 56 13.3 90 90 ESE 3 6 29.89 1012 10 16.0934 0 0
3:14 am 03:14 Partly Cloudy 57 14 55 13 94 94 ESE 6 9 29.88 1012 10 16.0934 0 0
3:53 am 03:53 Clear 58 14.4 55 12.8 90 90 E 3 6 29.88 1012 10 16.0934 0 0
4:16 am 04:16 Mostly Cloudy 57 14 55 13 94 94 Calm 29.88 1012 8 12.87472 0 0
4:53 am 04:53 Cloudy 60 15.6 57 13.9 90 90 Calm 29.91 1013 10 16.0934 0 0
5:53 am 05:53 Cloudy 61 16.1 58 14.4 90 90 Calm 29.91 1013 10 16.0934 0 0
6:53 am 06:53 Cloudy 62 16.7 58 14.4 86 86 Calm 29.92 1013 10 16.0934 0 0
7:28 am 07:28 Cloudy 63 17 57 14 83 83 Calm 29.88 1012 10 16.0934 0 0
7:53 am 07:53 Cloudy 63 17.2 58 14.4 84 84 Calm 29.94 1014 10 16.0934 0 0
8:53 am 08:53 Cloudy 64 17.8 60 15.6 87 87 E 5 7 29.95 1014 10 16.0934 0 0
9:53 am 09:53 Cloudy 67 19.4 59 15 76 76 ESE 6 9 29.95 1014 10 16.0934 0 0
10:46 am 10:46 Partly Cloudy 72 22 59 15 65 65 VRB 5 7 29.85 1011 10 16.0934 0 0
10:53 am 10:53 Mostly Cloudy 70 21.1 58 14.4 66 66 VRB 5 7 29.94 1014 10 16.0934 0 0
11:53 am 11:53 Mostly Cloudy 73 22.8 58 14.4 59 59 SE 7 11 29.94 1014 10 16.0934 0 0
12:05 pm 12:05 Partly Cloudy 74 23.3 58 14.4 57 57 E 8 13 29.83 1010 10 16.0934 0 0
12:53 pm 12:53 Partly Cloudy 73 22.8 58 14.4 59 59 E 7 11 29.93 1014 10 16.0934 0 0
1:53 pm 13:53 Mostly Sunny 77 25 58 14.4 52 52 E 7 11 29.9 1013 10 16.0934 0 0
2:53 pm 14:53 Sunny 78 25.6 58 14.4 50 50 E 9 15 29.89 1012 10 16.0934 0 0
3:53 pm 15:53 Sunny 79 26.1 57 13.9 47 47 ESE 9 15 29.88 1012 10 16.0934 0 0
4:53 pm 16:53 Sunny 79 26.1 58 14.4 49 49 E 9 15 29.87 1012 10 16.0934 0 0
5:53 pm 17:53 Sunny 79 26.1 58 14.4 49 49 E 9 15 29.87 1011 10 16.0934 0 0
6:53 pm 18:53 Sunny 76 24.4 57 13.9 52 52 E 9 15 29.88 1012 10 16.0934 0 0
7:53 pm 19:53 Sunny 73 22.8 61 16.1 66 66 ESE 9 15 29.88 1012 10 16.0934 0 0
8:53 pm 20:53 Clear 68 20 60 15.6 76 76 ESE 8 13 29.89 1012 10 16.0934 0 0
9:53 pm 21:53 Clear 65 18.3 59 15 81 81 ESE 7 11 29.9 1013 10 16.0934 0 0
10:53 pm 22:53 Clear 63 17.2 59 15 87 87 ESE 13 20 29.92 1013 10 16.0934 0 0
11:53 pm 23:53 Clear 61 16.1 58 14.4 90 90 ESE 13 20 29.91 1013 10 16.0934 0 0

Powered by AerisWeather